Wind_Speed
17 19 20 23 24 24 23 20 18 23 22 22 19 20 17 21 23 28 31 26 27 33 34 32 35 32 26 28 23 16 12 12 12 15 19 17 13 13 19 23 28 28 31 31
9 19 20 20 23 26 25 21 21 20 21 16 26 22 23 29 31 30 22 23 33 31 33 37 32 27 24 23 17 13 13 16 21 14 12 12 14 18 25 26 27 30 29 31
7 10 12 11 15 15 13 17 17 15 21 19 16 18 22 31 30 19 25 32 31 32 39 31 27 22 27 19 14 16 18 21 11 10 10 14 17 22 24 27 27 29 31 29
4 3 6 7 21 24 21 16 17 19 20 14 19 31 33 27 23 26 28 37 39 38 30 26 31 31 34 24 13 18 14 9 8 9 12 15 20 24 25 27 29 30 29 28
3 9 18 15 18 11 18 13 15 11 19 30 32 34 24 18 27 32 36 31 35 28 28 29 30 33 25 17 17 7 9 6 8 11 15 19 22 23 27 29 28 27 27 29
4 13 15 2 17 27 15 15 13 21 25 23 21 13 12 29 28 27 26 27 25 28 29 36 28 14 6 7 7 8 8 8 10 13 16 19 21 26 27 24 27 28 35 29
10 9 9 14 20 16 7 5 28 22 25 27 14 14 32 36 28 26 26 25 23 20 33 17 7 5 8 10 11 5 6 10 13 14 17 20 22 24 24 27 29 28 26 33
4 5 10 3 9 3 16 28 29 27 25 26 30 28 28 30 23 27 25 27 20 27 12 7 6 7 8 6 4 7 15 15 15 16 19 21 21 25 24 26 24 25 33 34
9 8 27 39 37 29 42 33 36 28 32 23 30 31 28 27 25 21 24 19 26 10 7 8 8 5 6 9 12 16 16 15 19 21 22 20 23 22 23 22 24 31 30 35
15 17 31 35 43 39 33 32 32 30 25 30 29 27 29 25 21 18 19 25 11 7 7 9 6 5 7 9 14 17 18 19 21 21 20 23 21 19 20 24 25 31 33 31
22 29 32 32 30 35 36 35 20 27 19 21 26 29 26 21 19 19 23 10 6 7 9 9 6 10 10 13 16 18 19 20 18 19 22 20 17 18 20 21 25 28 27 28
18 32 28 38 39 38 32 19 23 21 21 24 26 22 18 18 23 17 10 7 7 9 9 6 9 11 13 17 18 20 21 20 20 19 17 18 19 21 21 21 24 23 23 24
27 43 47 41 33 27 24 22 21 22 22 20 16 18 20 16 12 10 10 10 9 8 6 8 11 13 12 18 20 20 21 19 18 15 18 19 19 23 25 26 24 22 24 25
42 35 21 20 21 21 17 19 24 22 16 15 16 17 13 10 10 10 11 8 8 6 6 10 11 10 14 20 21 22 22 19 14 19 22 17 20 21 22 24 27 25 24 25
20 21 17 17 18 21 21 23 24 18 14 16 14 16 12 10 12 13 10 12 11 8 6 11 13 14 16 18 21 20 19 19 18 24 20 16 18 20 19 23 22 22 24 25
13 13 12 15 20 22 24 26 20 15 17 11 14 14 12 12 15 14 10 15 14 12 12 13 14 17 19 22 20 16 11 15 18 22 16 17 18 19 18 21 19 20 21 23
7 12 17 19 22 25 26 23 18 23 14 14 14 14 16 14 14 14 15 16 15 13 14 15 16 16 18 22 19 13 13 16 15 16 17 17 17 18 16 18 17 17 17 18
12 15 19 21 23 26 28 26 28 20 15 14 14 15 15 14 15 16 16 16 15 15 15 15 14 17 20 21 18 15 12 14 13 13 14 17 16 15 15 16 15 15 15 16
15 20 24 25 26 26 28 27 26 20 17 13 12 14 16 17 17 16 15 15 15 15 15 17 16 16 19 18 16 13 11 14 14 11 15 16 12 14 14 13 15 13 12 14
24 25 25 27 30 28 28 28 23 17 14 9 12 17 16 15 14 13 13 14 13 13 16 17 16 17 18 17 15 15 11 17 15 12 12 12 13 13 12 12 13 13 11 11
29 30 29 26 26 27 26 24 22 15 11 9 15 14 13 12 12 13 14 15 13 16 18 17 15 15 16 14 16 15 16 17 12 13 11 12 11 10 11 11 11 12 12 10
35 30 27 27 28 29 30 28 23 9 9 13 13 11 10 10 13 13 12 13 14 16 16 16 13 12 13 16 16 14 14 14 13 10 10 11 10 9 9 9 8 10 10 10
32 27 30 29 29 30 29 22 14 8 12 13 10 9 10 11 11 12 11 14 16 15 16 15 14 14 12 12 11 12 14 14 12 10 10 9 9 9 7 10 6 9 9 7
28 29 31 28 26 29 24 17 10 11 12 9 8 9 10 9 10 8 13 17 15 13 14 15 14 13 11 10 10 12 13 12 10 10 11 10 9 7 8 8 6 7 8 5
29 29 31 30 27 22 17 12 11 13 10 8 8 10 9 9 13 15 16 15 13 14 15 16 14 12 12 12 12 13 14 12 11 11 10 8 10 6 5 8 7 7 6 5
29 32 36 28 21 14 12 13 13 10 7 7 7 11 11 12 15 17 13 10 12 13 13 13 14 15 13 13 13 14 13 13 13 11 9 9 8 7 6 7 6 5 5 4
30 30 25 19 14 15 16 11 11 10 11 10 9 10 11 13 15 14 9 10 10 11 11 13 13 14 14 13 12 14 13 12 12 11 11 10 9 7 7 6 5 4 3 2
Wind_Direction
285 295 308 301 289 286 283 289 289 295 291 302 316 316 2 0 351 338 332 342 345 333 326 321 319 318 313 314 297 275 248 237 243 251 256 283 268 289 284 285 291 292 292 294
275 291 294 309 306 289 289 290 284 290 290 313 328 351 358 349 339 333 339 334 332 323 315 315 317 314 314 313 304 276 238 252 260 267 267 260 284 280 289 291 290 294 293 294
275 298 331 292 261 270 274 307 291 302 311 325 338 359 341 332 326 343 334 331 323 312 318 313 319 302 326 313 287 262 258 268 276 275 268 275 278 290 290 293 297 295 295 298
286 339 247 256 314 307 297 303 305 307 301 338 339 338 334 333 347 334 321 322 315 315 312 309 310 308 307 297 280 279 262 289 287 272 272 278 285 288 296 295 296 297 300 300
257 267 283 286 278 331 312 300 301 332 348 330 324 322 315 321 329 320 315 311 315 311 308 306 311 309 308 289 279 307 296 262 279 273 279 286 292 296 295 298 304 305 301 294
286 287 295 349 313 298 307 279 15 339 317 313 337 315 310 317 315 309 310 313 312 305 304 314 316 321 341 332 308 297 288 259 261 285 297 299 297 297 307 309 304 299 302 307
259 267 270 276 293 354 284 331 312 341 335 331 315 303 307 314 316 316 314 315 314 305 318 325 324 304 318 311 306 269 269 301 305 305 301 301 301 308 306 306 306 312 306 310
234 244 281 256 329 331 305 303 335 323 317 302 303 309 319 319 318 322 319 316 299 322 319 317 325 320 327 344 327 319 327 321 314 305 302 305 310 307 314 314 316 308 314 319
260 268 286 297 300 314 316 326 321 306 315 316 324 319 320 320 326 321 317 310 326 316 307 322 326 316 329 306 312 322 325 313 307 309 313 311 317 317 319 319 315 319 323 322
291 275 284 298 298 299 301 319 314 311 330 329 319 327 325 322 329 328 313 324 329 317 332 330 317 298 295 300 321 325 319 315 318 320 319 317 319 324 319 319 320 322 326 326
274 278 286 286 288 298 301 306 312 321 332 320 320 319 321 326 327 315 319 330 317 323 324 328 280 277 298 314 320 323 324 324 325 313 317 324 327 321 323 316 322 328 331 329
270 283 286 285 293 296 315 316 327 320 327 325 327 330 330 325 314 318 335 328 315 321 322 304 292 309 316 318 324 324 323 324 324 324 334 328 321 321 315 324 335 338 334 332
285 290 288 289 312 322 325 340 319 326 326 332 330 330 324 314 316 326 311 322 329 326 318 304 309 320 316 320 326 328 326 330 331 340 318 322 323 328 337 336 337 343 342 339
278 287 333 322 316 318 325 332 324 326 335 336 322 329 334 315 315 326 328 326 314 323 313 301 330 335 318 321 326 327 328 340 330 318 327 331 336 340 336 333 337 345 346 345
325 317 310 332 336 328 337 331 324 336 335 333 326 329 332 326 326 327 314 308 315 318 303 306 321 326 326 327 329 332 338 330 319 322 335 340 332 332 335 332 339 343 344 350
321 327 332 343 332 328 328 326 325 321 330 328 344 352 343 326 312 297 290 306 316 310 305 315 324 326 334 333 326 328 332 316 314 322 340 330 329 333 333 336 341 345 349 350
350 343 342 333 328 326 323 319 306 314 325 336 333 317 315 315 313 309 308 310 312 312 315 317 318 322 329 333 328 324 300 302 312 325 328 331 328 332 334 337 341 346 350 353
336 332 322 318 316 316 312 310 307 307 303 309 314 321 321 320 318 316 314 314 316 317 314 311 310 318 324 325 330 323 324 314 319 328 322 323 329 337 333 337 341 348 350 357
326 317 311 306 304 305 308 300 299 304 302 295 314 318 317 316 316 317 318 321 322 322 315 315 312 313 319 324 333 328 320 323 328 336 321 329 334 332 339 339 344 349 355 354
312 309 301 296 296 302 306 303 292 293 285 291 324 314 316 319 319 321 321 322 322 314 312 316 309 316 326 326 340 333 322 323 331 329 327 332 331 342 342 343 343 348 358 357
326 323 318 312 298 300 308 299 285 273 269 318 305 310 317 318 317 318 321 322 314 311 314 317 320 324 318 311 321 326 325 329 330 319 331 335 337 337 338 341 342 347 352 1
326 319 316 311 300 301 309 300 278 246 278 293 297 308 311 317 321 322 335 328 327 331 333 335 330 318 311 308 315 315 325 324 323 325 325 321 327 334 337 336 346 345 346 350
319 314 316 314 310 308 309 294 238 233 270 278 296 302 312 316 320 327 328 323 330 334 337 337 331 330 328 315 317 322 325 324 325 321 321 323 324 328 340 339 1 340 346 356
310 307 313 304 299 301 296 255 209 245 263 278 287 304 311 309 314 326 310 321 325 326 335 335 334 337 331 327 327 326 327 321 311 319 317 330 337 337 330 336 343 330 329 354
301 294 310 308 302 292 278 212 230 253 260 266 284 303 304 308 313 319 316 317 323 324 325 326 324 327 323 320 320 323 326 323 309 308 310 318 308 318 326 318 330 321 339 6
290 288 304 297 288 273 210 226 242 248 255 262 288 298 306 322 323 323 326 324 319 323 333 331 324 326 326 322 318 317 320 322 319 315 314 309 308 313 304 317 328 335 352 26
280 300 301 289 276 219 219 221 239 230 249 262 271 285 299 314 317 321 314 312 321 327 327 323 325 325 326 328 318 318 320 324 323 314 308 315 309 304 301 311 320 337 356 7
Height
1547 1543 1542 1540 1531 1520 1515 1510 1515 1498 1494 1484 1482 1479 1478 1481 1481 1481 1479 1477 1476 1473 1469 1464 1459 1454 1450 1447 1444 1440 1441 1442 1443 1442 1441 1442 1443 1443 1443 1441 1438 1435 1431 1427
1555 1546 1540 1536 1529 1516 1511 1505 1498 1491 1485 1483 1479 1478 1479 1482 1481 1478 1478 1478 1473 1470 1464 1459 1453 1450 1445 1444 1440 1438 1438 1438 1438 1438 1439 1440 1440 1439 1438 1435 1432 1428 1424 1420
1550 1545 1547 1544 1520 1510 1504 1499 1494 1494 1484 1478 1478 1480 1483 1481 1479 1476 1476 1474 1469 1462 1457 1453 1449 1444 1441 1439 1436 1434 1433 1433 1434 1434 1437 1437 1437 1435 1432 1429 1425 1421 1416 1413
1553 1556 1544 1513 1502 1502 1499 1493 1490 1487 1482 1480 1481 1482 1483 1482 1478 1474 1470 1466 1461 1456 1452 1448 1444 1440 1436 1433 1433 1430 1429 1431 1432 1433 1434 1433 1432 1430 1427 1423 1418 1414 1409 1406
1553 1539 1521 1518 1503 1501 1498 1493 1489 1487 1487 1487 1483 1481 1481 1481 1477 1472 1466 1461 1456 1453 1447 1441 1438 1434 1430 1428 1428 1428 1429 1430 1430 1430 1430 1429 1427 1424 1420 1416 1411 1407 1404 1398
1545 1540 1526 1504 1500 1497 1492 1492 1492 1492 1490 1487 1482 1480 1475 1473 1467 1464 1461 1456 1452 1446 1441 1437 1432 1429 1428 1428 1428 1428 1427 1428 1428 1427 1426 1424 1421 1417 1413 1410 1405 1401 1396 1391
1541 1537 1515 1500 1496 1494 1503 1502 1499 1493 1491 1486 1481 1479 1472 1467 1462 1459 1456 1451 1446 1441 1437 1432 1430 1429 1430 1429 1428 1426 1426 1426 1426 1424 1422 1419 1415 1411 1408 1403 1399 1394 1389 1385
1540 1534 1515 1493 1494 1508 1500 1491 1490 1485 1483 1480 1475 1469 1465 1461 1456 1453 1450 1445 1441 1437 1435 1432 1431 1430 1430 1428 1425 1425 1424 1424 1422 1421 1418 1414 1410 1406 1402 1398 1394 1389 1383 1378
1522 1511 1497 1495 1497 1492 1493 1488 1484 1483 1478 1473 1469 1464 1460 1456 1452 1449 1444 1440 1436 1434 1433 1431 1431 1430 1430 1428 1426 1424 1423 1421 1418 1415 1412 1409 1405 1402 1398 1394 1389 1383 1379 1373
1516 1503 1497 1495 1492 1491 1488 1485 1482 1477 1471 1468 1466 1459 1454 1450 1447 1444 1440 1436 1435 1433 1432 1431 1430 1428 1427 1426 1424 1421 1419 1416 1414 1411 1408 1405 1402 1399 1395 1390 1384 1380 1375 1369
1503 1495 1492 1488 1488 1485 1481 1479 1474 1470 1464 1462 1461 1455 1450 1446 1444 1440 1436 1434 1433 1432 1431 1430 1428 1427 1426 1424 1421 1418 1416 1413 1410 1407 1404 1401 1399 1397 1392 1387 1383 1378 1373 1367
1494 1489 1490 1479 1477 1477 1475 1471 1468 1467 1461 1457 1455 1450 1446 1444 1441 1437 1435 1433 1432 1431 1430 1428 1426 1425 1423 1420 1417 1415 1412 1409 1407 1404 1401 1399 1396 1392 1388 1384 1380 1376 1371 1366
1488 1484 1477 1474 1473 1472 1470 1465 1468 1465 1459 1451 1449 1447 1445 1441 1438 1437 1435 1432 1431 1430 1429 1426 1424 1423 1420 1418 1415 1412 1409 1406 1404 1401 1399 1396 1392 1388 1382 1379 1377 1373 1368 1362
1479 1475 1473 1472 1469 1468 1465 1464 1466 1463 1454 1452 1449 1445 1441 1439 1438 1436 1434 1432 1430 1428 1427 1425 1423 1421 1418 1415 1412 1409 1406 1403 1402 1400 1396 1393 1390 1386 1383 1378 1373 1369 1366 1360
1471 1472 1470 1467 1466 1468 1462 1464 1461 1453 1451 1450 1448 1441 1440 1438 1437 1435 1433 1430 1428 1427 1425 1422 1420 1418 1416 1413 1409 1407 1404 1402 1400 1397 1394 1391 1388 1385 1382 1377 1374 1369 1364 1359
1469 1469 1468 1465 1466 1462 1459 1456 1453 1450 1446 1445 1441 1437 1438 1437 1435 1433 1431 1428 1426 1424 1422 1419 1418 1415 1412 1410 1407 1405 1404 1401 1397 1395 1391 1389 1386 1383 1380 1377 1373 1370 1365 1360
1467 1467 1464 1463 1462 1459 1457 1453 1449 1443 1441 1439 1437 1437 1435 1433 1431 1429 1427 1425 1423 1421 1419 1417 1415 1413 1410 1407 1404 1402 1401 1398 1395 1393 1390 1387 1385 1382 1379 1376 1373 1370 1366 1362
1466 1464 1463 1461 1459 1456 1452 1448 1443 1440 1438 1436 1435 1434 1432 1430 1428 1425 1423 1422 1420 1418 1416 1414 1412 1410 1407 1404 1402 1399 1397 1395 1393 1390 1388 1386 1383 1381 1378 1375 1373 1370 1366 1362
1464 1462 1460 1456 1454 1450 1446 1442 1438 1436 1434 1433 1432 1431 1429 1427 1424 1422 1421 1419 1417 1414 1413 1411 1409 1407 1405 1401 1399 1397 1395 1393 1390 1388 1386 1384 1382 1380 1377 1375 1372 1369 1366 1363
1459 1457 1453 1449 1446 1443 1440 1436 1433 1432 1431 1429 1428 1428 1425 1423 1422 1420 1418 1417 1414 1412 1410 1408 1406 1404 1401 1399 1398 1395 1393 1391 1388 1386 1384 1383 1381 1379 1377 1375 1372 1369 1367 1364
1452 1449 1445 1442 1439 1436 1433 1430 1429 1427 1427 1426 1426 1424 1422 1420 1419 1417 1415 1413 1411 1409 1407 1405 1403 1401 1399 1398 1396 1394 1391 1389 1387 1385 1383 1381 1380 1378 1376 1374 1372 1369 1367 1365
1446 1443 1440 1437 1433 1429 1427 1424 1423 1423 1424 1424 1422 1421 1420 1418 1417 1415 1413 1411 1408 1406 1404 1402 1400 1398 1397 1396 1394 1392 1390 1387 1385 1383 1382 1380 1379 1377 1375 1373 1372 1370 1368 1366
1439 1437 1433 1430 1426 1424 1421 1418 1418 1420 1421 1420 1419 1418 1417 1416 1414 1412 1411 1409 1406 1404 1402 1400 1398 1396 1394 1393 1391 1390 1388 1385 1384 1382 1380 1379 1377 1376 1374 1372 1371 1369 1368 1366
1434 1430 1427 1424 1421 1417 1414 1414 1415 1417 1417 1417 1416 1416 1415 1413 1412 1411 1409 1406 1404 1402 1401 1399 1396 1395 1393 1391 1390 1388 1386 1384 1383 1381 1379 1377 1376 1375 1374 1372 1371 1369 1368 1366
1427 1423 1420 1417 1413 1411 1410 1411 1413 1413 1414 1414 1413 1413 1412 1411 1409 1407 1405 1403 1402 1400 1399 1397 1395 1393 1391 1390 1388 1386 1385 1383 1381 1380 1378 1377 1375 1374 1373 1371 1370 1369 1367 1366
1419 1416 1413 1410 1408 1407 1408 1410 1410 1410 1411 1411 1411 1410 1409 1408 1406 1404 1402 1401 1400 1398 1396 1395 1393 1391 1389 1387 1386 1385 1383 1381 1379 1378 1376 1375 1374 1373 1372 1370 1369 1368 1367 1367
1411 1409 1406 1403 1402 1403 1404 1405 1407 1408 1408 1408 1408 1407 1406 1405 1403 1402 1400 1399 1397 1396 1395 1393 1391 1389 1387 1386 1384 1383 1381 1380 1378 1376 1375 1374 1373 1371 1370 1370 1369 1368 1368 1367